Location: Unspecified
(40.7945°N, 111.1337°W)
Time: 06:52:25
(UTC-06:00)

ISS - Pass Details

Date: 23 March 2019
Orbit: 408 x 410 km, 51.6° (Epoch: 24 April)

Event Time Altitude Azimuth Distance (km) Brightness Sun altitude
Rises 20:58:47 0° 249° (WSW) 2,321 0.9 -15.6°
Reaches altitude 10° 21:00:56 10° 257° (WSW) 1,463 -0.1 -16.0°
Maximum altitude 21:04:04 42° 330° (NNW) 594 -2.7 -16.5°
Enters shadow 21:06:20 17° 36° (NE) 1,134 -1.8 -16.9°
